TimePDT,TemperatureF,Dew PointF,Humidity,Sea Level PressureIn,VisibilityMPH,Wind Direction,Wind SpeedMPH,Gust SpeedMPH,PrecipitationIn,Events,Conditions,WindDirDegrees,DateUTC
12:15 AM,55.4,48.2,77,29.90,10.0,North,5.8,-,N/A,Thunderstorm,Thunderstorm,350,2012-10-12 07:15:00
12:35 AM,55.4,48.2,77,29.90,10.0,NNW,5.8,-,N/A,,Clear,340,2012-10-12 07:35:00
12:55 AM,55.4,46.4,72,29.90,10.0,NNW,5.8,-,N/A,,Scattered Clouds,330,2012-10-12 07:55:00
1:15 AM,55.4,46.4,72,29.91,10.0,Calm,Calm,-,N/A,,Partly Cloudy,0,2012-10-12 08:15:00
1:35 AM,53.6,48.2,82,29.92,10.0,Calm,Calm,-,N/A,,Clear,0,2012-10-12 08:35:00
1:55 AM,55.4,46.4,72,29.91,10.0,East,4.6,-,N/A,,Mostly Cloudy,80,2012-10-12 08:55:00
2:15 AM,55.4,48.2,77,29.91,10.0,East,3.5,-,N/A,,Overcast,80,2012-10-12 09:15:00
2:35 AM,55.4,50.0,82,29.91,10.0,East,3.5,-,N/A,,Overcast,80,2012-10-12 09:35:00
2:55 AM,55.4,51.8,88,29.92,10.0,Calm,Calm,-,N/A,,Mostly Cloudy,0,2012-10-12 09:55:00
3:15 AM,53.6,50.0,88,29.90,10.0,North,4.6,-,N/A,,Scattered Clouds,360,2012-10-12 10:15:00
3:55 AM,53.6,48.2,82,29.91,10.0,NW,4.6,-,N/A,Thunderstorm,Partly Cloudy,320,2012-10-12 10:55:00
4:15 AM,53.6,50.0,88,29.92,10.0,Calm,Calm,-,N/A,,Clear,0,2012-10-12 11:15:00
4:35 AM,53.6,50.0,88,29.93,10.0,SSW,3.5,-,N/A,,Mostly Cloudy,200,2012-10-12 11:35:00
4:55 AM,53.6,50.0,88,29.93,10.0,Calm,Calm,-,N/A,Thunderstorm,Mostly Cloudy,0,2012-10-12 11:55:00
5:15 AM,53.6,50.0,88,29.94,10.0,North,3.5,-,N/A,,Partly Cloudy,360,2012-10-12 12:15:00
5:35 AM,53.6,50.0,88,29.95,10.0,Calm,Calm,-,N/A,,Partly Cloudy,0,2012-10-12 12:35:00
5:55 AM,51.8,48.2,88,29.95,10.0,WNW,3.5,-,N/A,,Partly Cloudy,300,2012-10-12 12:55:00
6:15 AM,53.6,48.2,82,29.96,10.0,ESE,3.5,-,N/A,,Partly Cloudy,120,2012-10-12 13:15:00
6:35 AM,51.8,48.2,88,29.95,10.0,NNE,3.5,-,N/A,Thunderstorm,Clear,20,2012-10-12 13:35:00
7:15 AM,53.6,48.2,82,29.95,10.0,NE,3.5,-,N/A,Thunderstorm,Clear,50,2012-10-12 14:15:00
7:35 AM,55.4,48.2,77,29.96,10.0,East,3.5,-,N/A,,Clear,100,2012-10-12 14:35:00
7:55 AM,55.4,48.2,77,29.97,10.0,ESE,5.8,-,N/A,Thunderstorm,Clear,110,2012-10-12 14:55:00
8:15 AM,55.4,48.2,77,29.98,10.0,ESE,3.5,-,N/A,,Clear,120,2012-10-12 15:15:00
8:35 AM,57.2,48.2,72,30.00,10.0,Calm,Calm,-,N/A,,Clear,0,2012-10-12 15:35:00
8:55 AM,57.2,46.4,67,30.00,10.0,SSW,5.8,-,N/A,,Clear,210,2012-10-12 15:55:00
9:15 AM,57.2,46.4,67,30.01,10.0,SSW,3.5,-,N/A,,Clear,210,2012-10-12 16:15:00
9:35 AM,57.2,48.2,72,30.02,10.0,Calm,Calm,-,N/A,,Partly Cloudy,0,2012-10-12 16:35:00
10:15 AM,59.0,46.4,63,30.03,10.0,SSW,6.9,-,N/A,,Scattered Clouds,210,2012-10-12 17:15:00
10:35 AM,59.0,44.6,59,30.03,10.0,South,8.1,-,N/A,,Mostly Cloudy,190,2012-10-12 17:35:00
10:55 AM,62.6,44.6,52,30.04,10.0,SSW,8.1,-,N/A,,Partly Cloudy,210,2012-10-12 17:55:00
11:55 AM,62.6,44.6,52,30.05,10.0,South,5.8,-,N/A,,Clear,180,2012-10-12 18:55:00
12:15 PM,62.6,44.6,52,30.04,10.0,SW,5.8,-,N/A,,Clear,230,2012-10-12 19:15:00
12:55 PM,64.4,42.8,45,30.04,10.0,SSW,9.2,16.1,N/A,,Clear,210,2012-10-12 19:55:00
1:15 PM,66.2,41.0,40,30.03,10.0,SSW,11.5,-,N/A,,Clear,210,2012-10-12 20:15:00
1:35 PM,66.2,42.8,43,30.03,10.0,South,11.5,-,N/A,Thunderstorm,Clear,180,2012-10-12 20:35:00
1:55 PM,66.2,41.0,40,30.02,10.0,South,15.0,-,N/A,,Partly Cloudy,190,2012-10-12 20:55:00
2:15 PM,66.2,44.6,46,30.02,10.0,SE,8.1,-,N/A,Thunderstorm,Mostly Cloudy,140,2012-10-12 21:15:00
2:35 PM,64.4,42.8,45,30.03,10.0,SSE,4.6,-,N/A,,Partly Cloudy,150,2012-10-12 21:35:00
3:15 PM,66.2,44.6,46,30.02,10.0,South,12.7,-,N/A,,Mostly Cloudy,170,2012-10-12 22:15:00
3:55 PM,64.4,46.4,52,30.02,10.0,SE,15.0,-,N/A,,Overcast,140,2012-10-12 22:55:00
4:15 PM,68.0,41.0,37,30.03,10.0,WSW,16.1,-,N/A,,Overcast,240,2012-10-12 23:15:00
4:35 PM,66.2,41.0,40,30.04,10.0,SW,12.7,-,N/A,,Overcast,220,2012-10-12 23:35:00
4:55 PM,66.2,41.0,40,30.04,10.0,SW,9.2,-,N/A,,Mostly Cloudy,220,2012-10-12 23:55:00
5:15 PM,66.2,41.0,40,30.04,10.0,SW,9.2,-,N/A,,Scattered Clouds,230,2012-10-13 00:15:00
5:35 PM,64.4,41.0,42,30.05,10.0,SW,9.2,-,N/A,,Clear,230,2012-10-13 00:35:00
5:55 PM,64.4,42.8,45,30.05,10.0,WSW,6.9,-,N/A,,Clear,240,2012-10-13 00:55:00
6:15 PM,62.6,44.6,52,30.05,10.0,SSW,5.8,-,N/A,,Clear,210,2012-10-13 01:15:00
6:35 PM,60.8,46.4,59,30.06,10.0,SSW,5.8,-,N/A,,Clear,200,2012-10-13 01:35:00
7:15 PM,59.0,46.4,63,30.06,10.0,South,5.8,-,N/A,,Clear,170,2012-10-13 02:15:00
7:35 PM,59.0,46.4,63,30.07,10.0,SSE,5.8,-,N/A,,Clear,160,2012-10-13 02:35:00
7:55 PM,59.0,46.4,63,30.08,10.0,SSE,4.6,-,N/A,,Clear,150,2012-10-13 02:55:00
8:15 PM,59.0,46.4,63,30.08,10.0,Calm,Calm,-,N/A,,Clear,0,2012-10-13 03:15:00
8:55 PM,57.2,48.2,72,30.09,10.0,Calm,Calm,-,N/A,,Clear,0,2012-10-13 03:55:00
9:35 PM,55.4,48.2,77,30.09,10.0,Calm,Calm,-,N/A,,Clear,0,2012-10-13 04:35:00
10:55 PM,55.4,46.4,72,30.10,10.0,Calm,Calm,-,N/A,,Clear,0,2012-10-13 05:55:00
11:15 PM,55.4,46.4,72,30.10,10.0,NE,3.5,-,N/A,,Clear,40,2012-10-13 06:15:00
11:35 PM,53.6,46.4,77,30.10,10.0,NE,4.6,-,N/A,,Clear,50,2012-10-13 06:35:00
11:55 PM,53.6,46.4,77,30.10,10.0,ENE,4.6,-,N/A,,Clear,60,2012-10-13 06:55:00